Location: Cheching
(60.0667°N, 164.2167°W)
Time: 02:00:25
(UTC+00:00)

UNISAT 6 - Pass Details

Date: 20 January 2021
Orbit: 607 x 687 km, 97.7° (Epoch: 05 March)

Event Time Altitude Azimuth Distance (km) Brightness Sun altitude
Rises 16:25:12 0° 136° (SE) 2,872 ? -22.5°
Reaches altitude 10° 16:27:27 10° 128° (SE) 1,977 ? -22.2°
Maximum altitude 16:31:25 38° 61° (ENE) 962 ? -21.7°
Drops below altitude 10° 16:35:28 10° 354° (N) 2,023 ? -21.2°
Enters shadow 16:36:20 - 350° (N) 2,356 ? -21.1°
